カタログに戻る

STARLINK-36207

運用中通信VLEO
NORAD 67014·PAYLOAD·🇺🇸 United States

打ち上げ Dec 10, 2025 から Vandenberg Space Force Base

Loading…

次のパス (今後24時間)

TLE

最新Source: CelesTrak SupGP

元期: Sep 15, 2026, 03:37 UTC

1 67014C 25293M   26258.15118056  .00054699  00000+0  45835-2 0  2586
2 67014  70.0019 336.8301 0003572 267.7271 158.5783 14.98306174    11

AllMySatでSTARLINK-36207をリアルタイム追跡

Download on the App Store